[[{"header":{"parameterUnit":"m.s-1","parameterCategory":2,"la1":30.2991,"la2":30.254,"lo1":-89.0895,"lo2":-89.0444,"dx":0.0017,"dy":0.0017,"nx":28,"ny":28,"refTime":"2022-11-15T15:00:00:Z","depth":"0","parameterNumber":2,"parameterNumberName":"U-component_of_CURRENTS"},"data":[0,0,0,0,0,0,0,0,0,0,0,0,0,0,0,0,0,0,0,0,0,0,0,0,0,0,0,0,0,0,0,0,0,0,0,0,0,0,0,0,0,0,0,0,0,0,0,0,0,0,0,0,0,0,0,0,0,0,0.4063,0.4064,0,0.4118,0.4119,0.4119,0.4118,0.4118,0.4117,0.4117,0.4108,0.4108,0.4108,0,0,0,0,0,0,0,0,0,0,0,0,0,0.394,0.3942,0.4063,0.4064,0.4065,0.4118,0.4119,0.4119,0.4119,0.4118,0.4117,0.4117,0.4107,0.4108,0.4108,0,0,0,0,0,0,0,0,0,0,0,0,0,0.3992,0.3943,0.4063,0.4073,0.4074,0.4118,0.4119,0.4119,0.4119,0.4118,0.4117,0.4116,0.4107,0.4108,0.4108,0.4126,0,0,0.4109,0.4109,0,0,0,0,0,0,0,0,0.3989,0.3996,0.407,0.4072,0.4074,0.4113,0.4072,0.4119,0.4119,0.4099,0.4117,0.4116,0.4105,0.4106,0.4116,0.4126,0.4125,0.4109,0.4109,0.411,0.411,0,0,0,0,0,0,0,0.3985,0.3994,0.4083,0.4071,0.4074,0.4068,0.4075,0.4081,0.4103,0.4101,0.4102,0.4112,0.4105,0.4115,0.4115,0.4125,0.4109,0.411,0.411,0.411,0.4192,0.4194,0,0,0,0,0,0,0.3985,0.3991,0.4081,0.4085,0.4031,0.4072,0.4079,0.4099,0.4105,0.4106,0.4112,0.4112,0.4115,0.4115,0.4115,0.4168,0.411,0.411,0.411,0.419,0.4192,0.4194,0,0,0,0,0,0,0.3983,0.3993,0.4079,0.404,0.405,0.4075,0.4098,0.4101,0.4115,0.4114,0.4114,0.4124,0.4114,0.4114,0.4137,0.4166,0.411,0.411,0.4188,0.4191,0.4193,0.4254,0,0,0,0,0,0,0.3979,0.3992,0.4003,0.404,0.4053,0.4117,0.4099,0.4102,0.4123,0.4123,0.4124,0.4122,0.4114,0.4137,0.4137,0.4166,0.4111,0.4185,0.4189,0.4192,0.425,0.4259,0.4267,0,0,0,0,0,0.3975,0.3999,0.4003,0.4014,0.4068,0.4119,0.4125,0.4137,0.4125,0.4144,0.4145,0.4123,0.416,0.4139,0.4139,0.4168,0.4183,0.4188,0.4192,0.4246,0.4257,0.4266,0,0,0,0,0,0,0.3943,0.4003,0.4008,0.4046,0.4083,0.412,0.4142,0.4144,0.4161,0.4161,0.4145,0.4145,0.4183,0.4168,0.4144,0.4205,0.417,0.4174,0.421,0.4221,0.4229,0.426,0.4111,0,0,0,0,0,0.3944,0.3989,0.403,0.4065,0.4085,0.4113,0.4131,0.4145,0.4168,0.4174,0.4173,0.4179,0.4203,0.4204,0.4223,0.4246,0.4266,0.4267,0.4276,0.4283,0.4311,0.4359,0.4374,0.4209,0.4209,0.4209,0,0,0.394,0.3983,0.4004,0.4063,0.4094,0.4132,0.4123,0.4169,0.4197,0.4171,0.4204,0.4215,0.422,0.4259,0.4273,0.4245,0.4345,0.4288,0.4294,0.4319,0.4365,0.4381,0.4395,0.4212,0.4211,0.4211,0,0,0.3963,0.3998,0.4037,0.4072,0.4129,0.4156,0.417,0.4212,0.4228,0.4262,0.4263,0.4294,0.4303,0.4329,0.4337,0.4404,0.4398,0.4402,0.4456,0.4501,0.4515,0.4528,0.4588,0.4606,0.4392,0.4392,0.4393,0,0.3955,0.4008,0.4054,0.4096,0.4125,0.4168,0.4202,0.4238,0.4277,0.4302,0.428,0.4344,0.4344,0.4408,0.4437,0.4424,0.4453,0.4411,0.4513,0.4525,0.4537,0.4596,0.4614,0.4396,0.4395,0.4395,0.4395,0,0.3995,0.4038,0.407,0.414,0.4176,0.4225,0.4274,0.4321,0.4339,0.4363,0.4429,0.4442,0.4478,0.4485,0.4481,0.457,0.4567,0.4526,0.4484,0.4557,0.4615,0.4633,0.4401,0.44,0.4399,0.4398,0,0,0.398,0.4079,0.4086,0.4121,0.4202,0.424,0.4312,0.4386,0.444,0.4472,0.4534,0.4582,0.4593,0.4609,0.4611,0.4651,0.4761,0.463,0.4631,0.4688,0.4885,0.4926,0.4949,0.4733,0.4736,0.4738,0.4895,0,0.3997,0.4069,0.4117,0.4188,0.4227,0.4296,0.4359,0.4431,0.4488,0.4564,0.4602,0.4663,0.4637,0.4666,0.4707,0.4762,0.4811,0.4724,0.4809,0.4812,0.4837,0.4972,0.4979,0.5123,0.4913,0.4916,0.4918,0,0.4003,0.4061,0.4115,0.4219,0.4243,0.4286,0.4404,0.4476,0.4598,0.464,0.4712,0.4749,0.485,0.4796,0.4926,0.4873,0.4897,0.492,0.4925,0.496,0.4888,0.5015,0.5164,0.5165,0.4946,0.4943,0.4941,0,0.3951,0.4056,0.4099,0.4129,0.425,0.4291,0.4368,0.4487,0.4561,0.4705,0.4778,0.4868,0.4945,0.499,0.5063,0.5001,0.5202,0.5106,0.5165,0.5167,0.5192,0.5192,0.5353,0.5194,0.5194,0.5193,0.5193,0,0.3936,0.3975,0.4077,0.4101,0.4171,0.4266,0.4356,0.4456,0.4594,0.4703,0.4816,0.4924,0.5,0.5118,0.5131,0.525,0.5258,0.5234,0.5231,0.5215,0.5215,0.5228,0.5167,0.5199,0.5198,0.5197,0.5196,0,0.3856,0.3925,0.3987,0.4106,0.4141,0.419,0.4332,0.4413,0.4571,0.4726,0.4784,0.4996,0.5183,0.5268,0.5381,0.5366,0.5356,0.5464,0.5461,0.5455,0.5473,0.5413,0.5255,0.5068,0.5556,0.5558,0.556,0,0.3814,0.3838,0.3955,0.3992,0.4039,0.4128,0.4199,0.4364,0.4466,0.477,0.4851,0.5103,0.5276,0.5509,0.5576,0.5668,0.5459,0.5672,0.5546,0.5543,0.5472,0.5145,0.497,0.5605,0.5608,0.5609,0.5611,0,0.3749,0.379,0.3843,0.3909,0.3974,0.4052,0.4177,0.4231,0.4469,0.4645,0.4894,0.507,0.5406,0.5564,0.5737,0.5761,0.55,0.5708,0.5709,0.5561,0.521,0.5006,0.5434,0.5626,0.5625,0.5623,0.5623,0.5622,0.3697,0.3705,0.3775,0.3823,0.3889,0.3945,0.3969,0.4141,0.4292,0.4546,0.4801,0.5092,0.551,0.5792,0.576,0.5871,0.56,0.5807,0.5749,0.5426,0.5201,0.5684,0.5856,0.5856,0.5855,0.5855,0.5855,0,0.3633,0.3651,0.3693,0.3735,0.3746,0.383,0.3934,0.396,0.4093,0.4468,0.4703,0.5228,0.5535,0.5798,0.6132,0.6011,0.5594,0.5877,0.5464,0.5289,0.5808,0.5778,0.5938,0.5938,0.5937,0.5937,0.5937,0.5937,0.3608,0.3607,0.3616,0.3583,0.3602,0.3584,0.3608,0.3695,0.3928,0.4281,0.4647,0.496,0.5673,0.6286,0.6408,0.6214,0.5682,0.5494,0.5275,0.5798,0.5786,0.5774,0.5738,0.5886,0.5886,0.4601,0.4593,0.4587]},{"header":{"parameterUnit":"m.s-1","parameterCategory":2,"la1":30.2991,"la2":30.254,"lo1":-89.0895,"lo2":-89.0444,"dx":0.0017,"dy":0.0017,"nx":28,"ny":28,"refTime":"2022-11-15T15:00:00:Z","depth":"0","parameterNumber":3,"parameterNumberName":"V-component_of_CURRENTS"},"data":[0,0,0,0,0,0,0,0,0,0,0,0,0,0,0,0,0,0,0,0,0,0,0,0,0,0,0,0,0,0,0,0,0,0,0,0,0,0,0,0,0,0,0,0,0,0,0,0,0,0,0,0,0,0,0,0,0,0,-0.009,-0.0091,0,-0.0193,-0.0194,-0.0196,-0.0272,-0.0273,-0.0273,-0.0274,-0.0445,-0.0449,-0.0453,0,0,0,0,0,0,0,0,0,0,0,0,0,-0.0034,-0.0034,-0.009,-0.0091,-0.0092,-0.0193,-0.0194,-0.0196,-0.0272,-0.0273,-0.0274,-0.0274,-0.0444,-0.0449,-0.0454,0,0,0,0,0,0,0,0,0,0,0,0,0,-0.0092,-0.0034,-0.009,-0.0141,-0.0146,-0.0192,-0.0194,-0.0196,-0.0272,-0.0273,-0.0274,-0.0274,-0.0442,-0.0448,-0.0455,-0.0478,0,0,-0.0473,-0.0476,0,0,0,0,0,0,0,0,-0.0088,-0.0094,-0.0132,-0.0137,-0.0143,-0.0219,-0.0238,-0.0293,-0.0272,-0.0227,-0.0274,-0.0275,-0.0374,-0.0386,-0.0406,-0.0486,-0.0493,-0.0474,-0.0478,-0.048,-0.0482,0,0,0,0,0,0,0,-0.0084,-0.009,-0.0133,-0.0133,-0.014,-0.0184,-0.0193,-0.0249,-0.0298,-0.0231,-0.0236,-0.0244,-0.0378,-0.0399,-0.041,-0.0496,-0.0474,-0.0479,-0.0483,-0.0486,-0.0602,-0.0601,0,0,0,0,0,0,-0.0062,-0.0086,-0.013,-0.0136,-0.0115,-0.0184,-0.0194,-0.0196,-0.0296,-0.0311,-0.0243,-0.0247,-0.0389,-0.0403,-0.0417,-0.0435,-0.048,-0.0486,-0.049,-0.0603,-0.0602,-0.0601,0,0,0,0,0,0,-0.006,-0.0065,-0.0125,-0.0112,-0.0123,-0.0183,-0.0185,-0.0197,-0.0216,-0.0304,-0.0321,-0.0249,-0.039,-0.0408,-0.0451,-0.0443,-0.0489,-0.0495,-0.0603,-0.0602,-0.0602,-0.0482,0,0,0,0,0,0,-0.0058,-0.0063,-0.0054,-0.011,-0.0122,-0.0139,-0.0185,-0.0199,-0.0219,-0.0225,-0.0315,-0.0332,-0.0392,-0.0441,-0.0457,-0.0453,-0.0499,-0.0604,-0.0603,-0.0602,-0.0487,-0.0477,-0.0469,0,0,0,0,0,-0.0056,-0.0034,-0.0053,-0.0058,-0.0108,-0.0138,-0.0148,-0.0196,-0.0218,-0.0217,-0.0274,-0.0329,-0.0446,-0.0445,-0.0464,-0.0461,-0.0605,-0.0603,-0.0602,-0.0491,-0.0479,-0.0469,0,0,0,0,0,0,-0.0003,-0.0042,-0.0063,-0.0054,-0.0088,-0.015,-0.0151,-0.0185,-0.0229,-0.0232,-0.032,-0.034,-0.0376,-0.0432,-0.0429,-0.0491,-0.0535,-0.0538,-0.0445,-0.0435,-0.0426,-0.0391,-0.0504,0,0,0,0,0,0.0014,0.0019,-0.0029,-0.0021,-0.0032,-0.009,-0.0106,-0.0137,-0.0184,-0.0204,-0.0267,-0.0332,-0.0385,-0.0418,-0.0473,-0.0506,-0.0562,-0.0517,-0.0508,-0.05,-0.0485,-0.056,-0.0556,-0.0597,-0.0597,-0.0597,0,0,0.0038,0.0017,0.002,-0.001,-0.004,-0.004,-0.0102,-0.0114,-0.0116,-0.0216,-0.0236,-0.0302,-0.0386,-0.042,-0.0442,-0.0466,-0.0517,-0.0499,-0.0491,-0.048,-0.0558,-0.0554,-0.055,-0.0596,-0.0596,-0.0596,0,0,0.0091,0.0069,0.0092,0.0069,0.0037,0.0005,0.0008,-0.0046,-0.0071,-0.0099,-0.0169,-0.0224,-0.0307,-0.0365,-0.0405,-0.0382,-0.0465,-0.0402,-0.0334,-0.0406,-0.0403,-0.0401,-0.046,-0.0464,-0.04,-0.04,-0.04,0,0.0118,0.0141,0.0094,0.0106,0.0106,0.0034,0.0063,0.0024,-0.0036,-0.005,-0.0087,-0.0204,-0.0281,-0.0325,-0.0318,-0.0362,-0.0408,-0.0365,-0.0393,-0.0393,-0.0393,-0.0454,-0.046,-0.0394,-0.0395,-0.0396,-0.0396,0,0.0184,0.02,0.0212,0.0208,0.0202,0.0212,0.0164,0.0146,0.0106,0.006,0.0011,-0.0093,-0.0162,-0.0201,-0.0255,-0.0289,-0.0323,-0.0369,-0.0415,-0.0381,-0.0448,-0.0457,-0.0386,-0.0388,-0.039,-0.0391,0,0,0.0251,0.0258,0.0265,0.0285,0.0261,0.0265,0.0267,0.0248,0.0254,0.0169,0.0165,0.0052,-0.001,-0.0059,-0.0143,-0.021,-0.026,-0.0276,-0.0283,-0.0324,-0.0406,-0.0422,-0.0434,-0.0309,-0.031,-0.0311,-0.0449,0,0.0317,0.0378,0.0363,0.0422,0.0452,0.0401,0.0419,0.0389,0.0337,0.0309,0.0189,0.0148,0.0045,0.0018,-0.0066,-0.0205,-0.0278,-0.0217,-0.0442,-0.0448,-0.0459,-0.0443,-0.0408,-0.0527,-0.0458,-0.046,-0.0461,0,0.0392,0.0424,0.0506,0.0544,0.0555,0.0582,0.0598,0.0595,0.0528,0.0486,0.0407,0.0315,0.0209,0.0116,-0.0108,-0.0061,-0.0215,-0.0336,-0.0345,-0.0406,-0.048,-0.0554,-0.0547,-0.085,-0.0475,-0.0474,-0.0473,0,0.0477,0.0526,0.0603,0.0612,0.0642,0.0676,0.0687,0.0657,0.0679,0.0595,0.0603,0.0443,0.0386,0.0172,-0.0072,-0.0091,-0.0317,-0.0387,-0.0551,-0.0555,-0.0591,-0.0595,-0.0894,-0.0549,-0.0548,-0.0548,-0.0548,0,0.0557,0.0614,0.0652,0.069,0.0793,0.0774,0.0861,0.0833,0.0828,0.0884,0.0707,0.0718,0.04,0.0237,-0.0017,-0.0293,-0.0285,-0.0529,-0.059,-0.0548,-0.0546,-0.0866,-0.1074,-0.0553,-0.0552,-0.0551,-0.055,0,0.0638,0.0659,0.0747,0.0807,0.0839,0.0909,0.0995,0.1054,0.102,0.1086,0.1078,0.0925,0.0712,0.0389,0.0043,-0.0198,-0.0677,-0.0586,-0.0504,-0.0552,-0.099,-0.1191,-0.1595,-0.177,-0.0795,-0.0796,-0.0797,0,0.0681,0.074,0.0843,0.0915,0.0951,0.1051,0.1142,0.1152,0.1223,0.1234,0.129,0.1114,0.1039,0.0519,0.0041,-0.0409,-0.0729,-0.0677,-0.0723,-0.1004,-0.1275,-0.143,-0.156,-0.0731,-0.0731,-0.0731,-0.0732,0,0.077,0.0812,0.0891,0.1043,0.1157,0.1278,0.1398,0.1494,0.153,0.1603,0.1664,0.1612,0.1121,0.0687,0.0057,-0.0275,-0.0928,-0.0698,-0.1024,-0.1274,-0.1432,-0.1629,-0.065,-0.0734,-0.0734,-0.0734,-0.0734,-0.0734,0.084,0.0922,0.1039,0.1185,0.1323,0.1495,0.1627,0.1767,0.1932,0.2089,0.1996,0.2033,0.1355,0.0498,-0.0047,-0.0948,-0.1007,-0.1184,-0.141,-0.1543,-0.1708,-0.0721,-0.0851,-0.0852,-0.0852,-0.0852,-0.0853,0,0.0923,0.1026,0.117,0.1356,0.1528,0.1574,0.1801,0.1959,0.2199,0.2391,0.2473,0.2249,0.1363,0.047,-0.0772,-0.1473,-0.1782,-0.1875,-0.2102,-0.2206,-0.1341,-0.1328,-0.1524,-0.1524,-0.1524,-0.1524,-0.1523,-0.1523,0.0974,0.1129,0.1211,0.1503,0.1641,0.1889,0.2034,0.2281,0.249,0.2793,0.2922,0.2934,0.2344,-0.0112,-0.1773,-0.2194,-0.2723,-0.2857,-0.3157,-0.2565,-0.2517,-0.2472,-0.2506,-0.2946,-0.2948,-0.3892,-0.3902,-0.391]}],[{"header":{"parameterUnit":"m.s-1","parameterCategory":2,"la1":30.2991,"la2":30.254,"lo1":-89.0895,"lo2":-89.0444,"dx":0.0017,"dy":0.0017,"nx":28,"ny":28,"refTime":"2022-11-15T15:00:00:Z","depth":"2","parameterNumber":2,"parameterNumberName":"U-component_of_CURRENTS"},"data":[0,0,0,0,0,0,0,0,0,0,0,0,0,0,0,0,0,0,0,0,0,0,0,0,0,0,0,0,0,0,0,0,0,0,0,0,0,0,0,0,0,0,0,0,0,0,0,0,0,0,0,0,0,0,0,0,0,0,0.3984,0.3985,0,0.404,0.404,0.404,0.4043,0.4043,0.4042,0.4042,0.4036,0.4036,0.4036,0,0,0,0,0,0,0,0,0,0,0,0,0,0.3865,0.3867,0.3984,0.3985,0.3986,0.404,0.404,0.4041,0.4043,0.4043,0.4042,0.4042,0.4036,0.4036,0.4036,0,0,0,0,0,0,0,0,0,0,0,0,0,0.3916,0.3868,0.3984,0.3995,0.3997,0.4039,0.404,0.4041,0.4043,0.4043,0.4042,0.4041,0.4036,0.4036,0.4036,0.4052,0,0,0.4038,0.4038,0,0,0,0,0,0,0,0,0.3913,0.392,0.3992,0.3994,0.3996,0.4036,0.3996,0.4042,0.4043,0.4023,0.4042,0.4041,0.4032,0.4033,0.4042,0.4052,0.4051,0.4038,0.4038,0.4038,0.4038,0,0,0,0,0,0,0,0.391,0.3918,0.4003,0.3994,0.3996,0.3993,0.3999,0.4005,0.4028,0.4025,0.4026,0.4036,0.4032,0.4042,0.4042,0.4051,0.4038,0.4038,0.4038,0.4038,0.412,0.4122,0,0,0,0,0,0,0.391,0.3915,0.4002,0.4005,0.3955,0.3996,0.4003,0.4022,0.4029,0.4031,0.4037,0.4036,0.4042,0.4042,0.4042,0.4097,0.4038,0.4038,0.4039,0.4118,0.4121,0.4123,0,0,0,0,0,0,0.3907,0.3917,0.3999,0.3962,0.3973,0.3999,0.402,0.4023,0.404,0.4039,0.4039,0.405,0.4041,0.4041,0.4065,0.4095,0.4039,0.4039,0.4116,0.4119,0.4122,0.4183,0,0,0,0,0,0,0.3904,0.3916,0.3927,0.3963,0.3975,0.4038,0.4021,0.4025,0.4048,0.4048,0.4051,0.4049,0.4041,0.4065,0.4065,0.4094,0.4039,0.4114,0.4118,0.4121,0.4179,0.4188,0.4196,0,0,0,0,0,0.3899,0.3923,0.3927,0.3938,0.3991,0.404,0.4046,0.4059,0.4049,0.4068,0.4071,0.4049,0.4088,0.4067,0.4067,0.4097,0.4112,0.4116,0.4121,0.4175,0.4186,0.4196,0,0,0,0,0,0,0.387,0.3927,0.3932,0.3969,0.4006,0.4041,0.4064,0.4067,0.4085,0.4086,0.4071,0.4071,0.4111,0.4096,0.4072,0.4134,0.4098,0.4103,0.4139,0.415,0.4158,0.4189,0.404,0,0,0,0,0,0.3871,0.3914,0.3953,0.3988,0.4008,0.4036,0.4055,0.4069,0.4092,0.4099,0.4099,0.4107,0.413,0.4132,0.4152,0.4174,0.4194,0.4196,0.4205,0.4212,0.4239,0.4286,0.4301,0.4137,0.4137,0.4137,0,0,0.3869,0.3909,0.393,0.3987,0.4017,0.4054,0.4046,0.4093,0.4121,0.4096,0.4131,0.4142,0.4148,0.4187,0.4201,0.4173,0.4273,0.4217,0.4223,0.4247,0.4292,0.4308,0.4323,0.414,0.414,0.4139,0,0,0.3892,0.3926,0.3964,0.3998,0.4054,0.4081,0.4095,0.4136,0.4154,0.4188,0.4189,0.4222,0.4232,0.4257,0.4265,0.4332,0.4326,0.4331,0.4385,0.4429,0.4443,0.4456,0.4515,0.4532,0.4321,0.4322,0.4322,0,0.3886,0.3936,0.3981,0.4021,0.405,0.4092,0.4126,0.4162,0.4202,0.4227,0.4207,0.4272,0.4272,0.4335,0.4365,0.4352,0.4381,0.434,0.4441,0.4453,0.4465,0.4522,0.454,0.4325,0.4325,0.4324,0.4324,0,0.3925,0.3966,0.3997,0.4065,0.4101,0.4149,0.4198,0.4245,0.4264,0.4289,0.4356,0.4369,0.4406,0.4413,0.4409,0.4498,0.4495,0.4454,0.4412,0.4485,0.4541,0.4559,0.433,0.4329,0.4328,0.4327,0,0,0.3907,0.4006,0.4013,0.4048,0.4127,0.4164,0.4236,0.4309,0.4364,0.4397,0.4459,0.4507,0.452,0.4535,0.4538,0.4578,0.4687,0.4558,0.4559,0.4615,0.4809,0.4844,0.4867,0.466,0.4663,0.4665,0.4819,0,0.3924,0.3996,0.4042,0.4113,0.4152,0.422,0.4282,0.4354,0.4412,0.4487,0.4526,0.4588,0.4563,0.4594,0.4634,0.4688,0.4736,0.4651,0.4733,0.4737,0.4757,0.4889,0.4474,0.458,0.4836,0.4839,0.4841,0,0.3929,0.3985,0.4042,0.4144,0.4168,0.4211,0.4328,0.44,0.4521,0.4564,0.4636,0.4673,0.4774,0.4721,0.485,0.4798,0.4822,0.4844,0.4849,0.4878,0.4806,0.4547,0.4602,0.4871,0.4868,0.4866,0.4864,0,0.3879,0.3981,0.4028,0.4057,0.4175,0.4218,0.4294,0.4413,0.4485,0.463,0.4702,0.4792,0.4868,0.4913,0.4985,0.4925,0.5122,0.5027,0.508,0.5082,0.4747,0.4716,0.5114,0.5113,0.5113,0.5113,0.5112,0,0.3865,0.3905,0.4007,0.4031,0.41,0.4194,0.4284,0.4384,0.4521,0.4628,0.4742,0.4847,0.4923,0.5039,0.5052,0.5166,0.5177,0.5148,0.5144,0.4761,0.4731,0.4982,0.4964,0.5118,0.5117,0.5116,0.5115,0,0.379,0.3862,0.3922,0.4037,0.4072,0.4122,0.4262,0.4343,0.45,0.4653,0.4711,0.4918,0.5101,0.5185,0.5296,0.5279,0.5353,0.5372,0.4948,0.4895,0.5258,0.5242,0.545,0.5453,0.5456,0.5458,0.546,0,0.3756,0.3779,0.3891,0.3927,0.3974,0.4063,0.4133,0.4296,0.4396,0.4695,0.4774,0.5021,0.5179,0.5405,0.5391,0.5459,0.5482,0.513,0.4948,0.5329,0.5303,0.5282,0.5264,0.4512,0.4505,0.45,0.4496,0,0.3693,0.3732,0.3782,0.3846,0.391,0.3987,0.411,0.4163,0.4398,0.4561,0.4802,0.4963,0.522,0.514,0.5274,0.5229,0.509,0.504,0.553,0.4529,0.4466,0.4434,0.4441,0.4452,0.4456,0.4459,0.4462,0.4464,0.3641,0.3647,0.3713,0.3761,0.3826,0.388,0.3904,0.4028,0.416,0.4319,0.4612,0.4719,0.4845,0.4851,0.4758,0.4674,0.5002,0.4757,0.4761,0.4773,0.4676,0.4625,0.4622,0.4627,0.4631,0.4635,0.4639,0,0.355,0.3593,0.3632,0.3672,0.3651,0.3767,0.3868,0.3808,0.3865,0.4087,0.4231,0.4002,0.4056,0.4165,0.3997,0.4076,0.389,0.3906,0.3597,0.3652,0.3698,0.353,0.318,0.3175,0.317,0.3165,0,0,0.3516,0.35,0.3507,0.3457,0.3501,0.3419,0.344,0.3389,0.346,0.3427,0.3484,0.3814,0.4086,0.355,0.354,0.3336,0.3434,0.3206,0.4394,0.4087,0.4124,0.4241,0.4057,0,0,0,0,0]},{"header":{"parameterUnit":"m.s-1","parameterCategory":2,"la1":30.2991,"la2":30.254,"lo1":-89.0895,"lo2":-89.0444,"dx":0.0017,"dy":0.0017,"nx":28,"ny":28,"refTime":"2022-11-15T15:00:00:Z","depth":"2","parameterNumber":3,"parameterNumberName":"V-component_of_CURRENTS"},"data":[0,0,0,0,0,0,0,0,0,0,0,0,0,0,0,0,0,0,0,0,0,0,0,0,0,0,0,0,0,0,0,0,0,0,0,0,0,0,0,0,0,0,0,0,0,0,0,0,0,0,0,0,0,0,0,0,0,0,-0.0034,-0.0035,0,-0.0137,-0.0138,-0.0139,-0.0217,-0.0217,-0.0218,-0.0218,-0.0389,-0.0393,-0.0397,0,0,0,0,0,0,0,0,0,0,0,0,0,0.0022,0.0021,-0.0034,-0.0035,-0.0036,-0.0136,-0.0138,-0.014,-0.0217,-0.0217,-0.0218,-0.0218,-0.0388,-0.0392,-0.0397,0,0,0,0,0,0,0,0,0,0,0,0,0,-0.0036,0.0021,-0.0033,-0.0085,-0.009,-0.0136,-0.0138,-0.014,-0.0216,-0.0217,-0.0218,-0.0219,-0.0386,-0.0392,-0.0398,-0.042,0,0,-0.0417,-0.0419,0,0,0,0,0,0,0,0,-0.0032,-0.0038,-0.0076,-0.0081,-0.0088,-0.0163,-0.0181,-0.0236,-0.0216,-0.0171,-0.0218,-0.0219,-0.0318,-0.0329,-0.0349,-0.0428,-0.0435,-0.0417,-0.0421,-0.0423,-0.0425,0,0,0,0,0,0,0,-0.0028,-0.0034,-0.0077,-0.0077,-0.0084,-0.0128,-0.0137,-0.0192,-0.0241,-0.0175,-0.018,-0.0188,-0.0322,-0.0343,-0.0354,-0.0438,-0.0417,-0.0422,-0.0426,-0.0428,-0.0544,-0.0543,0,0,0,0,0,0,-0.0006,-0.003,-0.0073,-0.0079,-0.0059,-0.0128,-0.0138,-0.014,-0.024,-0.0254,-0.0187,-0.0191,-0.0332,-0.0346,-0.036,-0.0379,-0.0423,-0.0429,-0.0433,-0.0544,-0.0544,-0.0543,0,0,0,0,0,0,-0.0005,-0.0009,-0.0069,-0.0056,-0.0067,-0.0128,-0.0129,-0.0141,-0.016,-0.0248,-0.0265,-0.0194,-0.0333,-0.0352,-0.0394,-0.0387,-0.0432,-0.0437,-0.0545,-0.0544,-0.0543,-0.0426,0,0,0,0,0,0,-0.0003,-0.0008,0.0002,-0.0054,-0.0066,-0.0083,-0.0129,-0.0143,-0.0163,-0.017,-0.0259,-0.0276,-0.0335,-0.0385,-0.04,-0.0396,-0.0442,-0.0546,-0.0545,-0.0544,-0.043,-0.0421,-0.0413,0,0,0,0,0,-0.0,0.0021,0.0003,-0.0002,-0.0052,-0.0082,-0.0092,-0.0141,-0.0162,-0.0162,-0.0218,-0.0273,-0.0389,-0.0389,-0.0407,-0.0405,-0.0546,-0.0545,-0.0544,-0.0434,-0.0423,-0.0413,0,0,0,0,0,0,0.0052,0.0014,-0.0007,0.0002,-0.0033,-0.0094,-0.0095,-0.013,-0.0174,-0.0178,-0.0264,-0.0284,-0.032,-0.0375,-0.0373,-0.0435,-0.0478,-0.048,-0.0388,-0.0378,-0.037,-0.0335,-0.0447,0,0,0,0,0,0.0069,0.0073,0.0026,0.0033,0.0022,-0.0035,-0.0052,-0.0082,-0.0129,-0.015,-0.0212,-0.0276,-0.0329,-0.0362,-0.0416,-0.0449,-0.0504,-0.046,-0.0451,-0.0443,-0.0428,-0.0502,-0.0499,-0.0539,-0.0539,-0.0539,0,0,0.0092,0.0071,0.0074,0.0045,0.0015,0.0015,-0.0047,-0.006,-0.0062,-0.0161,-0.0181,-0.0247,-0.033,-0.0363,-0.0385,-0.0409,-0.0461,-0.0442,-0.0434,-0.0423,-0.0501,-0.0497,-0.0493,-0.0538,-0.0538,-0.0538,0,0,0.0144,0.0122,0.0145,0.0123,0.0091,0.0059,0.0061,0.0008,-0.0018,-0.0046,-0.0115,-0.017,-0.0252,-0.0309,-0.0349,-0.0326,-0.0409,-0.0346,-0.0279,-0.0351,-0.0348,-0.0347,-0.0405,-0.0409,-0.0345,-0.0345,-0.0345,0,0.017,0.0193,0.0147,0.0159,0.0158,0.0087,0.0116,0.0077,0.0016,0.0002,-0.0035,-0.0151,-0.0227,-0.027,-0.0263,-0.0307,-0.0353,-0.031,-0.0338,-0.0338,-0.0338,-0.0399,-0.0405,-0.0339,-0.034,-0.034,-0.0341,0,0.0235,0.0251,0.0264,0.026,0.0254,0.0264,0.0216,0.0198,0.0157,0.0112,0.0062,-0.0041,-0.0109,-0.0148,-0.0201,-0.0235,-0.0269,-0.0315,-0.036,-0.0327,-0.0393,-0.0402,-0.0331,-0.0333,-0.0334,-0.0336,0,0,0.0302,0.031,0.0315,0.0336,0.0312,0.0316,0.0318,0.0299,0.0304,0.0219,0.0215,0.0103,0.0041,-0.0007,-0.009,-0.0157,-0.0208,-0.0223,-0.023,-0.0271,-0.0353,-0.0371,-0.0384,-0.0256,-0.0257,-0.0258,-0.0396,0,0.0368,0.0428,0.0413,0.0471,0.0501,0.045,0.0468,0.0437,0.0386,0.0358,0.0239,0.0198,0.0096,0.0069,-0.0015,-0.0153,-0.0225,-0.0165,-0.0388,-0.0394,-0.0407,-0.0393,-0.0335,-0.0452,-0.0405,-0.0406,-0.0407,0,0.0443,0.0475,0.0554,0.0592,0.0603,0.0629,0.0645,0.0642,0.0575,0.0533,0.0454,0.0362,0.0257,0.0165,-0.0058,-0.0011,-0.0164,-0.0283,-0.0293,-0.0355,-0.0428,-0.0481,-0.0471,-0.0423,-0.0422,-0.0421,-0.042,0,0.0526,0.0575,0.065,0.0659,0.0688,0.0722,0.0733,0.0702,0.0724,0.064,0.0647,0.0488,0.0431,0.0218,-0.0024,-0.0042,-0.0268,-0.0336,-0.05,-0.0503,-0.052,-0.0523,-0.0496,-0.0496,-0.0495,-0.0495,-0.0494,0,0.0605,0.0661,0.0698,0.0736,0.0838,0.0819,0.0905,0.0876,0.0871,0.0925,0.0749,0.0759,0.0444,0.0281,0.003,-0.0245,-0.0236,-0.0478,-0.0538,-0.0477,-0.0474,-0.0504,-0.0503,-0.05,-0.0499,-0.0498,-0.0497,0,0.0683,0.0703,0.0791,0.0851,0.0883,0.0952,0.1037,0.1094,0.106,0.1124,0.1116,0.0963,0.0749,0.0429,0.0086,-0.0152,-0.0433,-0.0537,-0.0434,-0.0479,-0.0638,-0.063,-0.0742,-0.0744,-0.0746,-0.0747,-0.0748,0,0.0724,0.0783,0.0886,0.0957,0.0993,0.1091,0.1182,0.1191,0.1261,0.1269,0.1323,0.1147,0.1066,0.0549,0.0083,-0.0362,-0.0429,-0.0608,-0.0649,-0.0615,-0.0663,-0.0652,-0.0642,-0.063,-0.063,-0.063,-0.063,0,0.0812,0.0854,0.0933,0.1084,0.1196,0.1316,0.1434,0.1529,0.1564,0.163,0.1685,0.1628,0.1145,0.0711,0.0088,-0.022,-0.0537,-0.0623,-0.0622,-0.0566,-0.0518,-0.0562,-0.0554,-0.063,-0.063,-0.063,-0.063,-0.063,0.0881,0.0962,0.1079,0.1224,0.136,0.153,0.166,0.1783,0.1939,0.2043,0.1966,0.189,0.1383,0.06,0.0054,-0.054,-0.0526,-0.0725,-0.0721,-0.0719,-0.0671,-0.0627,-0.075,-0.0751,-0.0751,-0.0752,-0.0752,0,0.0969,0.1066,0.1209,0.1393,0.1563,0.1608,0.1832,0.1962,0.2172,0.2243,0.2278,0.1839,0.1326,0.0727,-0.0134,-0.0642,-0.069,-0.0809,-0.0744,-0.074,-0.0737,-0.0688,-0.0774,-0.0776,-0.0777,-0.0779,0,0,0.1021,0.1176,0.1258,0.1543,0.1675,0.1915,0.2058,0.224,0.2345,0.2438,0.2392,0.2236,0.1533,0.0917,0.0216,-0.0276,-0.0397,-0.0384,-0.0309,-0.0145,-0.0136,-0.063,-0.0543,0,0,0,0,0]}],[{"header":{"parameterUnit":"m.s-1","parameterCategory":2,"la1":30.2991,"la2":30.254,"lo1":-89.0895,"lo2":-89.0444,"dx":0.0017,"dy":0.0017,"nx":28,"ny":28,"refTime":"2022-11-15T15:00:00:Z","depth":"4","parameterNumber":2,"parameterNumberName":"U-component_of_CURRENTS"},"data":[0,0,0,0,0,0,0,0,0,0,0,0,0,0,0,0,0,0,0,0,0,0,0,0,0,0,0,0,0,0,0,0,0,0,0,0,0,0,0,0,0,0,0,0,0,0,0,0,0,0,0,0,0,0,0,0,0,0,0.2398,0.24,0,0.2536,0.2537,0.2538,0.2637,0.2638,0.264,0.2641,0.2769,0.2771,0.2773,0,0,0,0,0,0,0,0,0,0,0,0,0,0.2215,0.2217,0.2398,0.24,0.2402,0.2535,0.2537,0.2538,0.2637,0.2639,0.264,0.2641,0.2768,0.2771,0.2774,0,0,0,0,0,0,0,0,0,0,0,0,0,0.2314,0.2218,0.2398,0.247,0.2478,0.2535,0.2537,0.2539,0.2637,0.2639,0.264,0.2642,0.2767,0.277,0.2774,0.2762,0,0,0.2785,0.2786,0,0,0,0,0,0,0,0,0.2309,0.2321,0.2457,0.2465,0.2474,0.2574,0.252,0.2614,0.2636,0.2573,0.2641,0.2643,0.2703,0.2712,0.273,0.2768,0.2774,0.2785,0.2787,0.2789,0.279,0,0,0,0,0,0,0,0.2302,0.2315,0.2449,0.2459,0.247,0.2493,0.2509,0.2538,0.2624,0.2579,0.2587,0.2607,0.2708,0.2726,0.2734,0.2776,0.2785,0.2788,0.279,0.2792,0.2983,0.2985,0,0,0,0,0,0,0.229,0.2309,0.2445,0.2454,0.2397,0.2495,0.2513,0.2537,0.2625,0.2641,0.2605,0.2611,0.2719,0.273,0.2739,0.2885,0.2789,0.2792,0.2794,0.298,0.2983,0.2986,0,0,0,0,0,0,0.2286,0.2301,0.244,0.2386,0.2406,0.2497,0.2524,0.2539,0.2614,0.2646,0.2661,0.267,0.2721,0.2734,0.2823,0.2885,0.2794,0.2797,0.2976,0.2981,0.2985,0.3078,0,0,0,0,0,0,0.228,0.2298,0.2339,0.2386,0.2409,0.2512,0.2523,0.2541,0.2621,0.2632,0.2705,0.2716,0.2723,0.2818,0.2827,0.2888,0.28,0.2972,0.2978,0.2983,0.3071,0.3085,0.3096,0,0,0,0,0,0.2273,0.2311,0.2339,0.2358,0.2453,0.2514,0.2529,0.2595,0.2623,0.2666,0.2724,0.2717,0.2859,0.2823,0.2833,0.2896,0.297,0.2977,0.2983,0.3065,0.3082,0.3096,0,0,0,0,0,0,0.2258,0.2326,0.2359,0.2419,0.2482,0.2533,0.2589,0.2623,0.2702,0.2731,0.2751,0.2766,0.2872,0.287,0.2829,0.2969,0.2914,0.2923,0.2973,0.2989,0.3002,0.3015,0.2803,0,0,0,0,0,0.227,0.2319,0.2383,0.2439,0.2477,0.2541,0.2586,0.2632,0.2693,0.2733,0.2783,0.284,0.2896,0.2933,0.298,0.3048,0.3055,0.3097,0.311,0.312,0.3139,0.3194,0.3213,0.3008,0.3008,0.3008,0,0,0.2283,0.2326,0.2359,0.244,0.2498,0.2562,0.2574,0.2661,0.2724,0.2731,0.285,0.2894,0.2927,0.3017,0.3062,0.3028,0.3186,0.3129,0.3137,0.3151,0.3203,0.3223,0.324,0.3013,0.3012,0.3011,0,0,0.2307,0.2374,0.2419,0.2476,0.2572,0.2614,0.265,0.2737,0.2797,0.2895,0.2927,0.3011,0.3089,0.3131,0.3155,0.3264,0.3257,0.3286,0.3358,0.3411,0.3428,0.3443,0.3486,0.3504,0.3285,0.3286,0.3286,0,0.232,0.2387,0.2444,0.2502,0.256,0.2642,0.2706,0.2775,0.2883,0.2937,0.2952,0.3107,0.3141,0.324,0.3293,0.3294,0.3322,0.3292,0.3427,0.3442,0.3455,0.3496,0.3514,0.3291,0.329,0.329,0.3289,0,0.2363,0.2442,0.248,0.2579,0.2645,0.2723,0.2813,0.2906,0.2985,0.3043,0.3182,0.3237,0.3327,0.3355,0.3364,0.3487,0.3475,0.3439,0.3382,0.3481,0.3518,0.3536,0.3299,0.3297,0.3295,0.3294,0,0,0.2321,0.2478,0.2499,0.2565,0.2698,0.2753,0.2875,0.2994,0.3089,0.3197,0.3305,0.3418,0.3465,0.3498,0.3525,0.3579,0.3707,0.3568,0.3568,0.3603,0.3838,0.362,0.3618,0.37,0.3704,0.3707,0.3826,0,0.2345,0.2458,0.2533,0.2663,0.2731,0.2848,0.2948,0.307,0.318,0.3309,0.339,0.3511,0.3511,0.3582,0.3639,0.3704,0.3759,0.3679,0.3744,0.3747,0.3533,0.3632,0.3718,0.3839,0.3843,0.3846,0.3848,0,0.2354,0.2431,0.2551,0.2714,0.2758,0.2851,0.3034,0.3144,0.3325,0.3411,0.354,0.3611,0.3752,0.3717,0.3868,0.3825,0.3854,0.3876,0.3879,0.3655,0.3561,0.3719,0.388,0.3877,0.3875,0.3873,0.3871,0,0.2274,0.2447,0.2545,0.2601,0.2788,0.2879,0.3001,0.3182,0.3286,0.3502,0.36,0.3744,0.3854,0.3915,0.3993,0.3953,0.4128,0.4057,0.3881,0.3866,0.3983,0.3966,0.4148,0.4148,0.4148,0.4147,0.4147,0,0.2242,0.2332,0.2531,0.2579,0.2715,0.2864,0.3024,0.3169,0.3363,0.3489,0.3664,0.3761,0.3918,0.4027,0.4048,0.4032,0.4175,0.3918,0.3887,0.4021,0.4006,0.3996,0.3977,0.4152,0.4151,0.415,0.4149,0,0.2138,0.2273,0.2394,0.2602,0.268,0.2785,0.3026,0.3132,0.3351,0.3524,0.3603,0.3826,0.3971,0.4086,0.4205,0.409,0.4097,0.4051,0.4223,0.4196,0.3784,0.3769,0.3845,0.3838,0.3833,0.3828,0.3824,0,0.2097,0.2149,0.2377,0.2455,0.2562,0.2741,0.2855,0.3098,0.3205,0.3521,0.3578,0.3812,0.3934,0.3926,0.4058,0.4088,0.4036,0.4005,0.3856,0.3793,0.3757,0.375,0.3743,0.3815,0.3814,0.3812,0.3811,0,0.1996,0.2095,0.2185,0.2342,0.2481,0.2615,0.2804,0.2848,0.3129,0.3359,0.3466,0.3544,0.3704,0.3777,0.3852,0.3852,0.4,0.3945,0.3954,0.3814,0.3758,0.3726,0.3725,0.3791,0.3794,0.3796,0.3797,0,0.1919,0.1954,0.2081,0.2204,0.236,0.2434,0.2558,0.2689,0.2819,0.316,0.3186,0.3439,0.366,0.3659,0.3717,0.3722,0.3643,0.3491,0.3522,0.3545,0.3392,0.3273,0.315,0,0,0,0,0,0.1824,0.1842,0.1939,0.2048,0.2188,0.2283,0.2496,0.2622,0.2884,0.2883,0.3022,0.3153,0.3252,0.3372,0.3316,0.3584,0.3657,0.3501,0.3496,0.3684,0.3706,0.3553,0,0,0,0,0,0,0.1753,0.1828,0.1868,0.1883,0.1928,0.2063,0.2184,0.2372,0.2382,0.2661,0.2731,0.2953,0.3097,0.3251,0.325,0.329,0.322,0.3665,0.3656,0.3671,0.3692,0.371,0.356,0,0,0,0,0]},{"header":{"parameterUnit":"m.s-1","parameterCategory":2,"la1":30.2991,"la2":30.254,"lo1":-89.0895,"lo2":-89.0444,"dx":0.0017,"dy":0.0017,"nx":28,"ny":28,"refTime":"2022-11-15T15:00:00:Z","depth":"4","parameterNumber":3,"parameterNumberName":"V-component_of_CURRENTS"},"data":[0,0,0,0,0,0,0,0,0,0,0,0,0,0,0,0,0,0,0,0,0,0,0,0,0,0,0,0,0,0,0,0,0,0,0,0,0,0,0,0,0,0,0,0,0,0,0,0,0,0,0,0,0,0,0,0,0,0,0.0219,0.0219,0,0.0136,0.0135,0.0134,0.0078,0.0077,0.0077,0.0077,-0.006,-0.0063,-0.0066,0,0,0,0,0,0,0,0,0,0,0,0,0,0.0268,0.0267,0.022,0.0219,0.0218,0.0137,0.0135,0.0134,0.0078,0.0077,0.0077,0.0077,-0.0059,-0.0062,-0.0067,0,0,0,0,0,0,0,0,0,0,0,0,0,0.0221,0.0267,0.022,0.0181,0.0176,0.0137,0.0135,0.0134,0.0078,0.0077,0.0077,0.0076,-0.0057,-0.0062,-0.0067,-0.0088,0,0,-0.0082,-0.0085,0,0,0,0,0,0,0,0,0.0224,0.0219,0.0187,0.0183,0.0178,0.0118,0.0102,0.0057,0.0078,0.0114,0.0077,0.0076,-0.0004,-0.0014,-0.0029,-0.0095,-0.0101,-0.0083,-0.0086,-0.0088,-0.0089,0,0,0,0,0,0,0,0.0227,0.0222,0.0186,0.0186,0.0181,0.0146,0.0139,0.0093,0.0057,0.0111,0.0107,0.0099,-0.0007,-0.0024,-0.0033,-0.0103,-0.0083,-0.0087,-0.009,-0.0092,-0.0203,-0.0203,0,0,0,0,0,0,0.0243,0.0226,0.0188,0.0183,0.0202,0.0146,0.0138,0.0137,0.0058,0.0047,0.01,0.0097,-0.0015,-0.0027,-0.0038,-0.0063,-0.0088,-0.0093,-0.0096,-0.0203,-0.0203,-0.0203,0,0,0,0,0,0,0.0245,0.0241,0.0192,0.0203,0.0194,0.0146,0.0145,0.0136,0.012,0.0051,0.0038,0.0094,-0.0016,-0.0031,-0.0069,-0.0069,-0.0095,-0.0099,-0.0203,-0.0203,-0.0203,-0.0116,0,0,0,0,0,0,0.0247,0.0242,0.0249,0.0204,0.0194,0.0176,0.0145,0.0134,0.0116,0.0112,0.0041,0.0028,-0.0017,-0.0061,-0.0074,-0.0076,-0.0103,-0.0203,-0.0203,-0.0203,-0.0119,-0.0113,-0.0108,0,0,0,0,0,0.0249,0.0264,0.025,0.0245,0.0204,0.0177,0.0169,0.0131,0.0117,0.0114,0.007,0.003,-0.007,-0.0065,-0.008,-0.0083,-0.0203,-0.0203,-0.0203,-0.0121,-0.0114,-0.0108,0,0,0,0,0,0,0.0288,0.0258,0.0242,0.0247,0.0217,0.0168,0.0166,0.0138,0.0102,0.01,0.0034,0.0018,-0.0017,-0.0062,-0.0054,-0.0116,-0.0145,-0.0148,-0.0078,-0.0072,-0.0066,-0.0036,-0.0108,0,0,0,0,0,0.03,0.0306,0.0264,0.027,0.0259,0.0214,0.0199,0.0174,0.0135,0.0119,0.007,0.0017,-0.0029,-0.0057,-0.0103,-0.0135,-0.0181,-0.0149,-0.0143,-0.0138,-0.0125,-0.0195,-0.0194,-0.0203,-0.0203,-0.0203,0,0,0.0316,0.0303,0.0304,0.0279,0.0256,0.025,0.0204,0.019,0.0185,0.0109,0.009,0.0036,-0.0032,-0.0066,-0.0087,-0.0103,-0.016,-0.0138,-0.0133,-0.0122,-0.0194,-0.0194,-0.0193,-0.0202,-0.0202,-0.0202,0,0,0.0355,0.0341,0.0357,0.0337,0.031,0.0283,0.0283,0.0237,0.0216,0.0189,0.0134,0.0086,0.0017,-0.0032,-0.0067,-0.006,-0.0126,-0.0079,-0.003,-0.0098,-0.0098,-0.0098,-0.0152,-0.0158,-0.0079,-0.0079,-0.0079,0,0.0375,0.039,0.0356,0.0363,0.0361,0.0305,0.0319,0.0287,0.0235,0.0222,0.0196,0.0094,0.0033,-0.0013,-0.0011,-0.0047,-0.0089,-0.0047,-0.0089,-0.0091,-0.0093,-0.0148,-0.0155,-0.0074,-0.0075,-0.0075,-0.0076,0,0.0419,0.043,0.044,0.0435,0.0426,0.043,0.0387,0.037,0.0338,0.0301,0.0253,0.0169,0.011,0.0076,0.0035,-0.0007,-0.0034,-0.0071,-0.0101,-0.0086,-0.0146,-0.0155,-0.0068,-0.007,-0.0071,-0.0072,0,0,0.0465,0.0472,0.0474,0.049,0.0468,0.0467,0.0462,0.044,0.044,0.037,0.0361,0.0266,0.0218,0.0177,0.0107,0.0045,-0.001,-0.0007,-0.0013,-0.0049,-0.0149,-0.0147,-0.0158,-0.0053,-0.0054,-0.0055,-0.0184,0,0.0511,0.0553,0.0541,0.058,0.06,0.056,0.0569,0.0539,0.0496,0.0468,0.0371,0.0334,0.0256,0.0232,0.0157,0.0037,-0.003,0.003,-0.0167,-0.0172,-0.0164,-0.0167,-0.0059,-0.0191,-0.0193,-0.0195,-0.0196,0,0.0555,0.0583,0.0639,0.0669,0.0675,0.0695,0.07,0.0693,0.0634,0.0601,0.0533,0.0455,0.0361,0.0293,0.0094,0.0138,0.0009,-0.0093,-0.0101,-0.0133,-0.0188,-0.0214,-0.0214,-0.0213,-0.0211,-0.021,-0.0209,0,0.0612,0.0647,0.0706,0.0713,0.0737,0.0764,0.0773,0.0742,0.0753,0.0684,0.0683,0.0545,0.0493,0.0313,0.0106,0.0098,-0.0114,-0.016,-0.0283,-0.0285,-0.0286,-0.0285,-0.0303,-0.0303,-0.0303,-0.0302,-0.0302,0,0.0662,0.0703,0.0744,0.0775,0.0855,0.0841,0.0907,0.0883,0.0872,0.09,0.0764,0.0746,0.0497,0.0346,0.0139,-0.0089,-0.0096,-0.0268,-0.0318,-0.0246,-0.0239,-0.0293,-0.029,-0.0307,-0.0306,-0.0305,-0.0304,0,0.0706,0.0729,0.0802,0.0859,0.0889,0.0943,0.1013,0.1049,0.1024,0.1053,0.1044,0.0898,0.0698,0.044,0.0144,-0.0025,-0.0259,-0.0344,-0.0228,-0.027,-0.0395,-0.0386,-0.0493,-0.0494,-0.0495,-0.0495,-0.0496,0,0.0726,0.0776,0.0876,0.0932,0.0968,0.105,0.1118,0.113,0.1167,0.1147,0.1166,0.1001,0.0871,0.0471,0.0177,-0.0216,-0.0279,-0.04,-0.0418,-0.0377,-0.0415,-0.0405,-0.0395,-0.0497,-0.0498,-0.0498,-0.0498,0,0.0776,0.0824,0.0889,0.1015,0.1105,0.1198,0.1285,0.1327,0.1343,0.1333,0.1273,0.106,0.0835,0.0495,0.0193,-0.0095,-0.0322,-0.0411,-0.0412,-0.0429,-0.0384,-0.0418,-0.0408,-0.0501,-0.0501,-0.05,-0.05,0,0.082,0.0877,0.0979,0.1085,0.1203,0.1307,0.1346,0.1393,0.1431,0.14,0.1381,0.1127,0.0978,0.0557,0.0278,-0.0002,-0.009,-0.019,-0.0204,-0.0204,-0.0092,0.0009,-0.0022,0,0,0,0,0,0.0853,0.0927,0.1034,0.1155,0.1273,0.1348,0.1444,0.1466,0.1494,0.1472,0.1428,0.1216,0.0806,0.0622,0.0343,0.023,-0.0156,-0.011,-0.0282,-0.0517,-0.0514,-0.0432,0,0,0,0,0,0,0.088,0.0986,0.1041,0.12,0.129,0.143,0.1498,0.1514,0.1486,0.1469,0.1254,0.1151,0.0745,0.0981,0.0345,0.0258,0.0108,-0.0303,-0.0309,-0.0519,-0.0516,-0.0513,-0.0428,0,0,0,0,0]}]]